When you browse on this site, cookies collect data to enhance your experience and personalize the content and advertising you see.
Visit our Privacy Policy to learn more. By continuing to use the site, you agree to this use of cookies and data.
  • In Deutschland
  • Länderverzeichnis
  • Für 7 Tage
  • Wassertemperatur
  • Wetterkarte
  • Widgets
  • user-avatar
    Anmelden

    Stündliche Wetter Malanwille

    Heute, 29 Mai, Freitag

    Zeit Temperatur Niederschläge Wind Luftdruck Luftfeuchtigkeit
    00:00 +33°C° 0 mm 3 m/S 743 mmHg 46%
    01:00 +33°C° 0 mm 3 m/S 742 mmHg 48%
    02:00 +31°C° 0 mm 3 m/S 742 mmHg 49%
    03:00 +31°C° 0 mm 2 m/S 742 mmHg 51%
    04:00 +31°C° 0 mm 2 m/S 742 mmHg 51%
    05:00 +31°C° 0 mm 2 m/S 742 mmHg 52%
    06:00 +30°C° 0 mm 2 m/S 742 mmHg 52%
    07:00 +34°C° 0 mm 3 m/S 743 mmHg 44%
    08:00 +36°C° 0 mm 4 m/S 743 mmHg 37%
    09:00 +40°C° 0 mm 4 m/S 743 mmHg 29%
    10:00 +41°C° 0 mm 4 m/S 743 mmHg 25%
    11:00 +42°C° 0 mm 4 m/S 742 mmHg 21%
    12:00 +44°C° 0 mm 3 m/S 741 mmHg 17%
    13:00 +44°C° 0 mm 3 m/S 741 mmHg 16%
    14:00 +45°C° 0 mm 2 m/S 740 mmHg 15%
    15:00 +44°C° 0 mm 1 m/S 739 mmHg 14%
    16:00 +43°C° 0 mm 1 m/S 739 mmHg 15%
    17:00 +42°C° 0 mm 1 m/S 739 mmHg 17%
    18:00 +41°C° 0 mm 1 m/S 739 mmHg 19%
    19:00 +40°C° 0 mm 2 m/S 740 mmHg 21%
    20:00 +38°C° 0 mm 3 m/S 740 mmHg 24%
    21:00 +37°C° 0 mm 4 m/S 741 mmHg 27%
    22:00 +37°C° 0 mm 3 m/S 741 mmHg 30%
    23:00 +36°C° 0 mm 3 m/S 741 mmHg 33%

    Morgen, 30 Mai, Samstag

    Zeit Temperatur Niederschläge Wind Luftdruck Luftfeuchtigkeit
    00:00 +35°C° 0 mm 3 m/S 741 mmHg 36%
    01:00 +34°C° 0 mm 4 m/S 741 mmHg 40%
    02:00 +34°C° 0 mm 4 m/S 741 mmHg 45%
    03:00 +33°C° 0 mm 5 m/S 740 mmHg 49%
    04:00 +33°C° 0 mm 5 m/S 741 mmHg 54%
    05:00 +32°C° 0 mm 5 m/S 742 mmHg 59%
    06:00 +32°C° 0 mm 5 m/S 742 mmHg 64%
    07:00 +33°C° 0 mm 5 m/S 742 mmHg 60%
    08:00 +34°C° 0 mm 5 m/S 743 mmHg 56%
    09:00 +36°C° 0 mm 5 m/S 743 mmHg 52%
    10:00 +37°C° 0 mm 5 m/S 743 mmHg 47%
    11:00 +40°C° 0 mm 4 m/S 743 mmHg 42%
    12:00 +41°C° 0 mm 4 m/S 742 mmHg 37%
    13:00 +42°C° 0 mm 4 m/S 742 mmHg 34%
    14:00 +42°C° 0 mm 3 m/S 741 mmHg 31%
    15:00 +43°C° 0 mm 3 m/S 740 mmHg 28%
    16:00 +42°C° 0 mm 3 m/S 740 mmHg 29%
    17:00 +41°C° 0 mm 2 m/S 740 mmHg 30%
    18:00 +40°C° 0 mm 2 m/S 740 mmHg 31%
    19:00 +39°C° 0 mm 3 m/S 741 mmHg 35%
    20:00 +38°C° 0 mm 3 m/S 741 mmHg 38%
    21:00 +37°C° 0 mm 4 m/S 742 mmHg 42%
    22:00 +36°C° 0 mm 4 m/S 742 mmHg 46%
    23:00 +35°C° 0 mm 4 m/S 742 mmHg 49%

    übermorgen, 31 Mai, Sonntag

    Zeit Temperatur Niederschläge Wind Luftdruck Luftfeuchtigkeit
    00:00 +35°C° 0 mm 5 m/S 742 mmHg 53%
    01:00 +34°C° 0 mm 5 m/S 742 mmHg 56%
    02:00 +33°C° 0 mm 5 m/S 742 mmHg 59%
    03:00 +33°C° 0 mm 6 m/S 742 mmHg 62%
    04:00 +32°C° 0 mm 6 m/S 742 mmHg 63%
    05:00 +32°C° 0 mm 6 m/S 742 mmHg 65%
    06:00 +32°C° 0 mm 6 m/S 743 mmHg 67%
    07:00 +33°C° 0 mm 5 m/S 743 mmHg 62%
    08:00 +34°C° 0 mm 5 m/S 743 mmHg 58%
    09:00 +35°C° 0 mm 5 m/S 744 mmHg 54%
    10:00 +37°C° 0 mm 4 m/S 744 mmHg 48%
    11:00 +38°C° 0 mm 4 m/S 743 mmHg 43%
    12:00 +40°C° 0 mm 3 m/S 743 mmHg 37%
    13:00 +41°C° 0 mm 2 m/S 743 mmHg 34%
    14:00 +41°C° 0 mm 2 m/S 742 mmHg 31%
    15:00 +42°C° 0 mm 1 m/S 741 mmHg 28%
    16:00 +42°C° 0 mm 1 m/S 741 mmHg 28%
    17:00 +41°C° 0 mm 1 m/S 741 mmHg 29%
    18:00 +41°C° 0 mm 1 m/S 741 mmHg 30%
    19:00 +40°C° 0 mm 1 m/S 742 mmHg 32%
    20:00 +39°C° 0 mm 2 m/S 742 mmHg 35%
    21:00 +38°C° 0 mm 2 m/S 743 mmHg 37%
    22:00 +37°C° 0 mm 3 m/S 743 mmHg 42%
    23:00 +36°C° 0 mm 4 m/S 743 mmHg 47%

    1 Juni, Montag

    Zeit Temperatur Niederschläge Wind Luftdruck Luftfeuchtigkeit
    00:00 +34°C° 0 mm 5 m/S 743 mmHg 52%
    01:00 +34°C° 0 mm 5 m/S 743 mmHg 53%
    02:00 +34°C° 0 mm 4 m/S 742 mmHg 54%
    03:00 +33°C° 0 mm 4 m/S 742 mmHg 56%
    04:00 +33°C° 0 mm 4 m/S 742 mmHg 57%
    05:00 +33°C° 0 mm 4 m/S 743 mmHg 59%
    06:00 +33°C° 0 mm 4 m/S 743 mmHg 61%
    07:00 +34°C° 0 mm 5 m/S 743 mmHg 56%
    08:00 +36°C° 0 mm 5 m/S 744 mmHg 51%
    09:00 +37°C° 0 mm 5 m/S 744 mmHg 47%
    10:00 +39°C° 0 mm 5 m/S 744 mmHg 43%
    11:00 +41°C° 0 mm 4 m/S 743 mmHg 38%
    12:00 +42°C° 0 mm 3 m/S 743 mmHg 34%
    13:00 +43°C° 0 mm 3 m/S 742 mmHg 32%
    14:00 +42°C° 0 mm 2 m/S 742 mmHg 29%
    15:00 +43°C° 0 mm 1 m/S 741 mmHg 27%
    16:00 +42°C° 0 mm 2 m/S 741 mmHg 29%
    17:00 +41°C° 0 mm 2 m/S 741 mmHg 31%
    18:00 +40°C° 0 mm 3 m/S 741 mmHg 34%
    19:00 +38°C° 0.4 mm 4 m/S 741 mmHg 41%
    20:00 +37°C° 0.4 mm 4 m/S 742 mmHg 48%
    21:00 +35°C° 0.4 mm 5 m/S 742 mmHg 55%
    22:00 +34°C° 0 mm 5 m/S 742 mmHg 56%
    23:00 +34°C° 0 mm 5 m/S 742 mmHg 56%

    2 Juni, Dienstag

    Zeit Temperatur Niederschläge Wind Luftdruck Luftfeuchtigkeit
    00:00 +34°C° 0 mm 5 m/S 742 mmHg 57%
    01:00 +33°C° 0 mm 6 m/S 742 mmHg 60%
    02:00 +32°C° 0 mm 7 m/S 742 mmHg 64%
    03:00 +31°C° 0 mm 9 m/S 742 mmHg 68%
    04:00 +30°C° 0 mm 7 m/S 742 mmHg 69%
    05:00 +29°C° 0 mm 6 m/S 742 mmHg 69%
    06:00 +29°C° 0 mm 5 m/S 743 mmHg 70%
    07:00 +32°C° 0 mm 5 m/S 743 mmHg 64%
    08:00 +34°C° 0 mm 5 m/S 744 mmHg 57%
    09:00 +36°C° 0 mm 5 m/S 744 mmHg 51%
    10:00 +37°C° 0 mm 4 m/S 744 mmHg 45%
    11:00 +40°C° 0 mm 4 m/S 743 mmHg 40%
    12:00 +41°C° 0 mm 4 m/S 743 mmHg 35%
    13:00 +42°C° 0 mm 4 m/S 742 mmHg 33%
    14:00 +42°C° 0 mm 3 m/S 741 mmHg 32%
    15:00 +43°C° 0 mm 3 m/S 740 mmHg 30%
    16:00 +42°C° 0 mm 3 m/S 740 mmHg 31%
    17:00 +42°C° 0 mm 3 m/S 740 mmHg 33%
    18:00 +40°C° 0 mm 3 m/S 740 mmHg 34%
    19:00 +40°C° 0.1 mm 4 m/S 741 mmHg 37%
    20:00 +38°C° 0.1 mm 4 m/S 741 mmHg 40%
    21:00 +37°C° 0.1 mm 4 m/S 742 mmHg 43%
    22:00 +36°C° 0.1 mm 5 m/S 742 mmHg 48%
    23:00 +35°C° 0.1 mm 5 m/S 742 mmHg 52%

    3 Juni, Mittwoch

    Zeit Temperatur Niederschläge Wind Luftdruck Luftfeuchtigkeit
    00:00 +34°C° 0.1 mm 5 m/S 742 mmHg 56%
    01:00 +34°C° 0 mm 5 m/S 741 mmHg 59%
    02:00 +33°C° 0 mm 5 m/S 741 mmHg 61%
    03:00 +33°C° 0 mm 5 m/S 741 mmHg 64%
    04:00 +33°C° 0 mm 5 m/S 741 mmHg 64%
    05:00 +32°C° 0 mm 5 m/S 741 mmHg 65%
    06:00 +32°C° 0 mm 5 m/S 742 mmHg 65%
    07:00 +34°C° 0 mm 5 m/S 742 mmHg 60%
    08:00 +35°C° 0 mm 5 m/S 742 mmHg 55%
    09:00 +38°C° 0 mm 6 m/S 742 mmHg 51%
    10:00 +39°C° 0 mm 5 m/S 742 mmHg 46%
    11:00 +41°C° 0 mm 5 m/S 742 mmHg 41%
    12:00 +42°C° 0 mm 4 m/S 741 mmHg 36%
    13:00 +43°C° 0 mm 4 m/S 741 mmHg 34%
    14:00 +43°C° 0 mm 3 m/S 740 mmHg 31%
    15:00 +44°C° 0 mm 3 m/S 739 mmHg 29%
    16:00 +43°C° 0 mm 3 m/S 739 mmHg 30%
    17:00 +43°C° 0 mm 3 m/S 739 mmHg 32%
    18:00 +42°C° 0 mm 3 m/S 740 mmHg 33%
    19:00 +41°C° 0.2 mm 4 m/S 740 mmHg 38%
    20:00 +39°C° 0.2 mm 5 m/S 740 mmHg 43%
    21:00 +38°C° 0.2 mm 6 m/S 740 mmHg 48%
    22:00 +36°C° 0.4 mm 6 m/S 741 mmHg 52%
    23:00 +35°C° 0.4 mm 5 m/S 741 mmHg 55%
    Mehr zeigen